• In Belarus
  • List of Countries
  • For 7 days
  • Water Temperature
  • Satellite Maps
  • Weather Map
  • Weather Widgets
  • user-avatar
    Login

    Hourly Weather Chotkow

    Today, 15 August, Wednesday

    Time Temperature Precipitation Wind Pressure Humidity
    00:00 +19°C° 0 mm 3 mps 749 mmHg 79%
    01:00 +18°C° 0 mm 3 mps 749 mmHg 82%
    02:00 +18°C° 0 mm 3 mps 750 mmHg 84%
    03:00 +18°C° 0 mm 3 mps 750 mmHg 86%
    04:00 +17°C° 0 mm 3 mps 750 mmHg 88%
    05:00 +18°C° 0 mm 4 mps 750 mmHg 86%
    06:00 +18°C° 0 mm 4 mps 751 mmHg 85%
    07:00 +18°C° 0 mm 4 mps 751 mmHg 83%
    08:00 +19°C° 0 mm 4 mps 751 mmHg 77%
    09:00 +20°C° 0 mm 4 mps 752 mmHg 72%
    10:00 +21°C° 0 mm 4 mps 752 mmHg 66%
    11:00 +22°C° 0 mm 4 mps 752 mmHg 60%
    12:00 +23°C° 0 mm 4 mps 752 mmHg 54%
    13:00 +26°C° 0 mm 4 mps 752 mmHg 48%
    14:00 +26°C° 0 mm 4 mps 752 mmHg 48%
    15:00 +26°C° 0 mm 4 mps 752 mmHg 48%
    16:00 +26°C° 0 mm 4 mps 752 mmHg 48%
    17:00 +25°C° 0 mm 3 mps 752 mmHg 52%
    18:00 +24°C° 0 mm 2 mps 752 mmHg 57%
    19:00 +23°C° 0 mm 2 mps 752 mmHg 61%
    20:00 +22°C° 0 mm 1 mps 752 mmHg 64%
    21:00 +21°C° 0 mm 1 mps 753 mmHg 67%
    22:00 +20°C° 0 mm 1 mps 753 mmHg 69%
    23:00 +20°C° 0 mm 1 mps 753 mmHg 72%

    Tomorrow, 16 August, Thursday

    Time Temperature Precipitation Wind Pressure Humidity
    00:00 +19°C° 0 mm 1 mps 753 mmHg 74%
    01:00 +19°C° 0 mm 1 mps 753 mmHg 76%
    02:00 +18°C° 0 mm 1 mps 753 mmHg 78%
    03:00 +18°C° 0 mm 1 mps 753 mmHg 79%
    04:00 +18°C° 0 mm 1 mps 753 mmHg 80%
    05:00 +19°C° 0 mm 1 mps 753 mmHg 76%
    06:00 +20°C° 0 mm 1 mps 753 mmHg 71%
    07:00 +21°C° 0 mm 1 mps 753 mmHg 66%
    08:00 +23°C° 0 mm 1 mps 753 mmHg 60%
    09:00 +25°C° 0 mm 1 mps 753 mmHg 53%
    10:00 +27°C° 0 mm 1 mps 753 mmHg 46%
    11:00 +27°C° 0 mm 1 mps 753 mmHg 44%
    12:00 +28°C° 0 mm 1 mps 752 mmHg 42%
    13:00 +28°C° 0 mm 2 mps 752 mmHg 40%
    14:00 +28°C° 0 mm 2 mps 752 mmHg 40%
    15:00 +28°C° 0 mm 2 mps 751 mmHg 40%
    16:00 +28°C° 0 mm 2 mps 751 mmHg 40%
    17:00 +27°C° 0 mm 2 mps 751 mmHg 45%
    18:00 +26°C° 0 mm 2 mps 751 mmHg 50%
    19:00 +25°C° 0 mm 2 mps 751 mmHg 55%
    20:00 +24°C° 0 mm 2 mps 751 mmHg 58%
    21:00 +23°C° 0 mm 2 mps 751 mmHg 61%
    22:00 +21°C° 0 mm 2 mps 751 mmHg 64%
    23:00 +20°C° 0 mm 2 mps 751 mmHg 66%

    Day after tomorrow, 17 August, Friday

    Time Temperature Precipitation Wind Pressure Humidity
    00:00 +20°C° 0 mm 2 mps 751 mmHg 68%
    01:00 +19°C° 0 mm 2 mps 751 mmHg 70%
    02:00 +19°C° 0 mm 2 mps 751 mmHg 72%
    03:00 +19°C° 0 mm 2 mps 750 mmHg 73%
    04:00 +18°C° 0 mm 2 mps 750 mmHg 74%
    05:00 +19°C° 0 mm 2 mps 750 mmHg 71%
    06:00 +20°C° 0 mm 2 mps 750 mmHg 67%
    07:00 +21°C° 0 mm 2 mps 750 mmHg 64%
    08:00 +24°C° 0 mm 2 mps 750 mmHg 57%
    09:00 +27°C° 0 mm 2 mps 750 mmHg 51%
    10:00 +29°C° 0 mm 2 mps 750 mmHg 44%
    11:00 +30°C° 0 mm 2 mps 750 mmHg 41%
    12:00 +30°C° 0 mm 2 mps 750 mmHg 38%
    13:00 +31°C° 0 mm 2 mps 749 mmHg 35%
    14:00 +31°C° 0 mm 1 mps 749 mmHg 36%
    15:00 +31°C° 0 mm 1 mps 749 mmHg 36%
    16:00 +31°C° 0 mm 1 mps 749 mmHg 37%
    17:00 +30°C° 0 mm 1 mps 749 mmHg 41%
    18:00 +28°C° 0 mm 1 mps 749 mmHg 44%
    19:00 +27°C° 0 mm 1 mps 749 mmHg 48%
    20:00 +26°C° 0.1 mm 1 mps 750 mmHg 52%
    21:00 +25°C° 0.1 mm 1 mps 750 mmHg 55%
    22:00 +24°C° 0.1 mm 2 mps 750 mmHg 58%
    23:00 +23°C° 0.5 mm 2 mps 751 mmHg 65%

    18 August, Saturday

    Time Temperature Precipitation Wind Pressure Humidity
    00:00 +21°C° 0.5 mm 3 mps 751 mmHg 73%
    01:00 +20°C° 0.5 mm 4 mps 751 mmHg 80%
    02:00 +20°C° 0.5 mm 3 mps 751 mmHg 84%
    03:00 +19°C° 0.5 mm 3 mps 752 mmHg 88%
    04:00 +19°C° 0.5 mm 3 mps 752 mmHg 92%
    05:00 +19°C° 0.1 mm 3 mps 752 mmHg 91%
    06:00 +18°C° 0.1 mm 3 mps 753 mmHg 90%
    07:00 +18°C° 0.1 mm 3 mps 753 mmHg 89%
    08:00 +19°C° 0 mm 3 mps 754 mmHg 82%
    09:00 +20°C° 0 mm 3 mps 754 mmHg 75%
    10:00 +21°C° 0 mm 3 mps 754 mmHg 69%
    11:00 +23°C° 0 mm 2 mps 754 mmHg 61%
    12:00 +25°C° 0 mm 2 mps 754 mmHg 53%
    13:00 +26°C° 0 mm 2 mps 754 mmHg 46%
    14:00 +26°C° 0 mm 2 mps 754 mmHg 43%
    15:00 +27°C° 0 mm 2 mps 754 mmHg 40%
    16:00 +27°C° 0 mm 2 mps 753 mmHg 37%
    17:00 +26°C° 0 mm 2 mps 754 mmHg 41%
    18:00 +24°C° 0 mm 2 mps 754 mmHg 46%
    19:00 +23°C° 0 mm 1 mps 754 mmHg 50%
    20:00 +22°C° 0 mm 1 mps 754 mmHg 52%
    21:00 +21°C° 0 mm 1 mps 754 mmHg 54%
    22:00 +20°C° 0 mm 1 mps 755 mmHg 55%
    23:00 +19°C° 0 mm 1 mps 755 mmHg 57%

    19 August, Sunday

    Time Temperature Precipitation Wind Pressure Humidity
    00:00 +19°C° 0 mm 1 mps 755 mmHg 59%
    01:00 +19°C° 0 mm 1 mps 755 mmHg 60%
    02:00 +18°C° 0 mm 1 mps 755 mmHg 62%
    03:00 +17°C° 0 mm 2 mps 755 mmHg 64%
    04:00 +16°C° 0 mm 2 mps 755 mmHg 66%
    05:00 +17°C° 0 mm 2 mps 755 mmHg 64%
    06:00 +18°C° 0 mm 2 mps 755 mmHg 61%
    07:00 +19°C° 0 mm 2 mps 756 mmHg 59%
    08:00 +21°C° 0 mm 2 mps 756 mmHg 54%
    09:00 +24°C° 0 mm 2 mps 756 mmHg 49%
    10:00 +26°C° 0 mm 2 mps 756 mmHg 43%
    11:00 +26°C° 0 mm 2 mps 756 mmHg 42%
    12:00 +27°C° 0 mm 3 mps 755 mmHg 41%
    13:00 +28°C° 0 mm 3 mps 755 mmHg 39%
    14:00 +28°C° 0 mm 3 mps 755 mmHg 41%
    15:00 +28°C° 0 mm 3 mps 755 mmHg 43%
    16:00 +27°C° 0 mm 3 mps 755 mmHg 45%
    17:00 +26°C° 0 mm 2 mps 755 mmHg 51%
    18:00 +25°C° 0 mm 2 mps 755 mmHg 56%
    19:00 +23°C° 0 mm 1 mps 755 mmHg 62%
    20:00 +22°C° 0 mm 1 mps 755 mmHg 66%
    21:00 +21°C° 0 mm 1 mps 755 mmHg 69%
    22:00 +20°C° 0 mm 1 mps 756 mmHg 73%
    23:00 +20°C° 0 mm 1 mps 755 mmHg 74%

    20 August, Monday

    Time Temperature Precipitation Wind Pressure Humidity
    00:00 +20°C° 0 mm 1 mps 755 mmHg 75%
    01:00 +20°C° 0 mm 1 mps 755 mmHg 76%
    02:00 +19°C° 0 mm 1 mps 755 mmHg 78%
    03:00 +19°C° 0 mm 1 mps 755 mmHg 79%
    04:00 +19°C° 0 mm 1 mps 755 mmHg 80%
    05:00 +20°C° 0 mm 1 mps 755 mmHg 76%
    06:00 +21°C° 0 mm 1 mps 755 mmHg 72%
    07:00 +22°C° 0 mm 1 mps 755 mmHg 68%
    08:00 +24°C° 0 mm 1 mps 755 mmHg 61%
    09:00 +26°C° 0 mm 1 mps 755 mmHg 54%
    10:00 +28°C° 0 mm 1 mps 755 mmHg 46%
    11:00 +29°C° 0 mm 1 mps 755 mmHg 44%
    12:00 +29°C° 0 mm 1 mps 755 mmHg 41%
    13:00 +30°C° 0 mm 1 mps 754 mmHg 39%
    14:00 +30°C° 0 mm 1 mps 754 mmHg 39%
    15:00 +30°C° 0 mm 1 mps 754 mmHg 39%
    16:00 +30°C° 0 mm 1 mps 754 mmHg 39%
    17:00 +28°C° 0 mm 1 mps 754 mmHg 43%
    18:00 +27°C° 0 mm 1 mps 753 mmHg 47%
    19:00 +26°C° 0 mm 1 mps 753 mmHg 51%
    20:00 +25°C° 0 mm 1 mps 754 mmHg 54%
    21:00 +24°C° 0 mm 1 mps 754 mmHg 56%
    22:00 +24°C° 0 mm 1 mps 754 mmHg 58%
    23:00 +23°C° 0 mm 1 mps 754 mmHg 60%
    Show more